Regional Weather Roundup
Issued by NWS

Home | Current Version | Previous Version | Text Only | Print | Product List | Glossary On
Versions: 1 2 3 4 5 6 7 8 9 10 11 12 13 14 15 16 17 18 19 20 21 22 23 24 25 26 27 28 29 30 31 32 33 34 35 36 37 38 39 40 41 42 43 44 45 46 47 48 49 50
000
ASUS43 KDTX 060110
RWRMI
MICHIGAN HOURLY REGIONAL WEATHER ROUNDUP
NATIONAL WEATHER SERVICE DETROIT/PONTIAC MI
900 PM EDT SUN JUL 05 2015

NOTE: "FAIR" INDICATES FEW OR NO CLOUDS BELOW 12,000 FEET WITH NO
SIGNIFICANT WEATHER AND/OR OBSTRUCTION TO VISIBILITY.

MIZ047>049-052>055-059>063-066>070-074>076-081>083-060200-
SOUTHEAST LOWER MICHIGAN

CITY           SKY/WX    TMP DP  RH WIND       PRES   REMARKS
ADRIAN         PTCLDY    72  59  63 CALM      30.09S
ALMA           CLEAR     73  64  71 CALM      30.06S
ANN ARBOR      PTCLDY    69  59  70 CALM      30.08F
BAD AXE        PTCLDY    73  62  68 E5        30.07F
CARO           PTCLDY    71  67  85 CALM      30.07R
DETROIT CITY   PTCLDY    74  54  49 SE5       30.08F
DETROIT        MOCLDY    73  58  59 SE6       30.08F
FLINT          MOCLDY    78  61  55 S6        30.07S
GROSSE ILE     MOCLDY    72  61  68 CALM      30.07F
HILLSDALE      MOCLDY    74  60  63 SE5       30.09S
HOWELL         PTCLDY    74  60  60 SE6       30.08R

CITY           SKY/WX    TMP DP  RH WIND       PRES   REMARKS
JACKSON        MOCLDY    73  59  61 SE6       30.07F
LAMBERTVILLE   MOCLDY    73  59  61 E3        30.09F
LANSING        PTCLDY    77  61  57 S8        30.06F
LAPEER         FAIR      74  58  59 SE5       30.08S
MASON          PTCLDY    71  62  72 CALM      30.07S
MONROE         MOCLDY    70  58  67 E3        30.08S
MT. CLEMENS    PTCLDY    68  58  70 SE7       30.06F
PONTIAC        MOCLDY    74  56  53 S5        30.08S
PORT HOPE        N/A     69  64  84 SE6       30.06F
PORT HURON     PTCLDY    66  63  88 CALM      30.09S
TRI CITIES     CLEAR     78  61  55 S6        30.06S
MIDLAND        FAIR      72  63  72 CALM      30.05R
TROY           PTCLDY    77  55  45 CALM      30.10S
SAGINAW HB     PTCLDY    75  61  60 SE5       30.05S
$$
MIZ043>046-050>051-056>058-064>065-071>073-077>080-060200-
SOUTHWEST LOWER MICHIGAN

CITY           SKY/WX    TMP DP  RH WIND       PRES   REMARKS
BATTLE CREEK   CLEAR     77  61  57 S3        30.07S
BENTON HARBOR  CLEAR     73  60  63 N3        30.04S
BIG RAPIDS     CLEAR     75  60  58 W3        30.05R
COLDWATER      MOCLDY    75  59  58 SE5       30.07S
FREMONT        FAIR      73  58  59 CALM      30.04S
HOLLAND        CLEAR     76  59  55 CALM      30.05S
GRAND RAPIDS   PTCLDY    75  63  66 S5        30.05S
IONIA          FAIR      78  63  59 S3        30.05S
KALAMAZOO      CLEAR     78  61  55 S3        30.06S
LUDINGTON      CLEAR     76  60  57 S6        30.02F
MARSHALL       PTCLDY    76  61  59 CALM      30.06S
MOUNT PLEASANT CLEAR     76  62  61 SE3       30.05R
MUSKEGON       PTCLDY    73  54  51 S3        30.03F
SOUTH HAVEN    CLEAR     71  62  74 CALM      30.04F
$$
MIZ016>042-060200-
NORTHERN LOWER MICHIGAN

CITY           SKY/WX    TMP DP  RH WIND       PRES   REMARKS
ALPENA         CLEAR     69  60  73 CALM      30.05S
BEAVER ISLAND  CLEAR     70  58  66 SW7       30.00S
BELLAIRE       CLEAR     74  66  74 CALM      30.00S
CADILLAC       CLEAR     75  62  65 S3        30.05S
CHARLEVOIX     CLEAR     72  60  65 CALM      30.02F
FRANKFORT      CLEAR     75  54  47 S5        30.01S
GAYLORD        CLEAR     76  60  57 S8        30.04F HAZE
GRAYLING       CLEAR     74  62  64 S5        30.06R
HARBOR SPRINGS CLEAR     69  63  81 CALM      30.00F
HOUGHTON LAKE  CLEAR     73  61  65 S6        30.06S
MANISTEE       CLEAR    N/A N/A N/A S6        30.02S
OSCODA         PTCLDY    71  56  59 SE5       30.05F
PELLSTON       CLEAR     75  64  68 NW5       30.01F
ROGERS CITY    CLEAR     73  62  69 S9        30.03S
TRAVERSE CITY  MOCLDY    79  62  56 VRB3      29.99S
$$
MIZ007>008-015-060200-
EASTERN UPPER MICHIGAN

CITY           SKY/WX    TMP DP  RH WIND       PRES   REMARKS
KINROSS        CLEAR     72  61  68 S7        30.01S
MACKINAC ISLAN CLEAR     65  59  79 CALM      30.00F
NEWBERRY       CLEAR     67  59  77 S10G18    29.98S
S. S. MARIE    CLEAR     71  58  63 SE10      29.99F
MUNISING         N/A     74  60  61 S13G21    29.91S
$$
MIZ004>006-011>014-085-060200-
CENTRAL UPPER MICHIGAN

CITY           SKY/WX    TMP DP  RH WIND       PRES   REMARKS
MANISTIQUE     CLEAR     60  56  87 S5        29.98S
ESCANABA       CLEAR     70  61  73 S10       29.95S
MENOMINEE      CLEAR     73  61  64 S9        29.94F
SAWYER-GWINN   CLEAR     73  63  68 S15       29.93S
$$
MIZ001>003-009>011-084-060200-
WESTERN UPPER MICHIGAN

CITY           SKY/WX    TMP DP  RH WIND       PRES   REMARKS
IRON MOUNTAIN  CLEAR     76  61  59 S9        29.93S
HOUGHTON       MOCLDY    78  60  53 S6        29.84S
COPPER HARBOR    N/A     74  61  63 W5        29.82S
IRONWOOD       MOCLDY    79  63  57 S12G18    29.80F
$$

ABBREVIATIONS USED IN REMARKS
   TC - TEMPERATURE IN CELSIUS
  WCI - WIND CHILL INDEX
   HX - HEAT INDEX
  VSB - VISIBILITY




USA.gov is the U.S. government's official web portal to all federal, state and local government web resources and services.